Regional Weather Roundup
Issued by NWS

Home | Current Version | Previous Version | Graphics & Text | Print | Product List | Glossary On
Versions: 1 2 3 4 5 6 7 8 9 10 11 12 13 14 15 16 17 18 19 20 21 22 23 24 25 26 27 28 29 30 31 32 33 34 35 36 37 38 39 40 41 42 43 44 45 46 47 48 49 50
000
ASUS43 KFSD 262302
RWRSD

WEATHER ROUNDUP FOR SOUTH DAKOTA
NATIONAL WEATHER SERVICE SIOUX FALLS SD
600 PM CDT THU MAY 26 2016

NOTE: "FAIR" INDICATES FEW OR NO CLOUDS BELOW 12,000 FEET WITH NO
SIGNIFICANT WEATHER AND/OR OBSTRUCTIONS TO VISIBILITY.


SDZ001>005-009-010-012>017-270000-
NORTHWEST AND NORTH CENTRAL SOUTH DAKOTA

CITY           SKY/WX    TMP DP  RH WIND       PRES   REMARKS
BUFFALO          N/A     68  40  35 NW17G28   29.77S
FAITH            N/A     72  36  26 W12G25    29.79F
MOBRIDGE       SUNNY     76  49  38 W9        29.73F
$$

SDZ012>016-024>037-041>051-057-063-072>074-270000-
SOUTHWEST AND SOUTH CENTRAL SOUTH DAKOTA

CITY           SKY/WX    TMP DP  RH WIND       PRES   REMARKS
RAPID CTY ARPT MOSUNNY   67  47  48 E5        29.83F
PIERRE         MOSUNNY   74  54  49 NW14      29.72F
CUSTER         CLOUDY    63  30  28 VRB7      29.90F
PHILIP         MOSUNNY   72  52  49 N15       29.78F
PINE RIDGE     CLOUDY    67  43  41 W8        29.83S
WINNER         FAIR      79  49  34 CALM      29.77R
$$

SDZ004>011-016>023-039-040-270000-
NORTHEAST SOUTH DAKOTA

CITY           SKY/WX    TMP DP  RH WIND       PRES   REMARKS
ABERDEEN       SUNNY     78  50  37 W13       29.72F
WATERTOWN      SUNNY     75  49  39 NW5       29.77F
BROOKINGS      SUNNY     75  50  41 S6        29.78F
SISSETON         N/A     78  48  34 NW10      29.73F
$$

SDZ017-020-022-023-036>040-048>070-270000-
SOUTHEAST SOUTH DAKOTA

CITY           SKY/WX    TMP DP  RH WIND       PRES   REMARKS
SIOUX FALLS    PTSUNNY   74  56  53 E5        29.79S
HURON          SUNNY     76  53  44 SE9       29.76R
MITCHELL       SUNNY     76  53  44 SE7       29.76S
YANKTON        CLOUDY    75  57  53 E8        29.76R
$$

ABBREVIATIONS USED IN REMARKS
   TC - TEMPERATURE IN CELSIUS
  WCI - WIND CHILL INDEX
   HX - HEAT INDEX
  VSB - VISIBILITY





USA.gov is the U.S. government's official web portal to all federal, state and local government web resources and services.